Location: Munkebjergskolens Observatorium
(55.3864°N, 10.3987°E)
Time: 00:18:09
(UTC+02:00)

JY1SAT - Visible Passes

Search period start: 18 April 2024 00:00
Search period end: 28 April 2024 00:00
Orbit: 541 x 557 km, 97.5° (Epoch: 17 April)

Date Brightness Start Highest point End Pass type
(mag) Time Alt. Az. Time Alt. Az. Time Alt. Az.
18 Apr ? 21:17:26 10° SE 21:21:04 36° ENE 21:24:43 10° N visible
18 Apr ? 22:52:41 12° SSW 22:55:52 30° W 22:59:23 10° NNW visible
19 Apr ? 21:12:50 10° SE 21:16:24 33° ENE 21:19:59 10° N visible
19 Apr ? 22:47:51 12° SSW 22:51:08 33° W 22:54:44 10° NNW visible
20 Apr ? 22:42:59 12° SSW 22:46:22 36° W 22:50:03 10° NNW visible
21 Apr ? 22:38:05 11° SSW 22:41:34 40° W 22:45:19 10° NNW visible
22 Apr ? 22:33:08 11° S 22:36:44 44° W 22:40:32 10° NNW visible
23 Apr ? 22:28:10 11° S 22:31:52 49° W 22:35:43 10° NNW visible
24 Apr ? 22:23:10 10° S 22:26:58 54° W 22:30:52 10° NNW visible
25 Apr ? 22:18:09 10° S 22:22:03 61° WSW 22:25:58 10° NNW visible
26 Apr ? 22:13:10 10° S 22:17:05 68° WSW 22:21:02 10° NNW visible
27 Apr ? 22:08:10 10° S 22:12:05 76° WSW 22:16:03 10° NNW visible
27 Apr ? 23:46:38 10° W 23:47:31 11° W 23:48:25 10° WNW visible
